Starlink 1202

operational
NORAD ID: 45183 Int'l Des: 2020-012 Owner: SPXS Country: US Constellation: starlink
LEOCIRCULARSTARLINK_TYPE

Über Starlink 1202

Beschreibung wird geladen...

Live-Position

3D-Globus wird geladen...

Nächste Überflüge

Höhenverlauf

Altitude vs Time

uPlot chart will show altitude changes over time

Zweizeiliger Elementsatz

1 45183U 20012F 25304.79475750 -.00003535 00000-0 -21872-3 0 9995
2 45183 53.0554 265.2535 0001478 95.5744 264.5413 15.06374913315415
Epoch: 31. Okt. 2025 • Age: 10 hours

Aktueller Status

Höhe 547.0 km
Geschwindigkeit 7.59 km/s
Subsatellitenpunkt 16.53°N, 50.23°W
Startdatum 17. Feb. 2020
Alter 5.7 years
Typ internet

Technische Details

Klassifizierung Payload
Masse 260.00 kg
Trockenmasse 248.00 kg
Gesamtmasse 260.00 kg
Länge 0.20 m
Durchmesser 2.80 m
Spannweite 9.00 m
Form Box + pan
Hersteller SPXS
Bus-Typ Starlink
Phasenstatus In Orbit
Besitzer/Staat SPXS/US

Große Konstellationen

Loading constellations...